Location: Byszew
(52.1813°N, 19.2693°E)
Time: 18:56:04
(UTC+00:00)

Cosmos 2369 Rocket - Pass Details

Date: 03 March 2021
Orbit: 829 x 852 km, 71.0° (Epoch: 17 April)

Event Time Altitude Azimuth Distance (km) Brightness Sun altitude
Rises 19:44:36 0° 329° (NNW) 3,384 6.2 -30.0°
Reaches altitude 10° 19:47:23 10° 341° (NNW) 2,448 5.2 -30.4°
Enters shadow 19:51:04 27° 20° (NNE) 1,571 3.7 -30.9°
